Location: Aurora Center
(43.5271°N, 98.5894°W)
Time: 01:35:42
(UTC-05:00)

BlueWalker 3 - Pass Details

Date: 24 June 2024
Orbit: 480 x 492 km, 53.2° (Epoch: 15 July)

Event Time Altitude Azimuth Distance (km) Brightness Sun altitude
Rises 22:06:13 0° 267° (W) 2,538 6.2 -7.5°
Reaches altitude 10° 22:08:37 10° 279° (W) 1,659 5.5 -7.8°
Maximum altitude 22:11:52 28° 340° (NNW) 940 4.1 -8.2°
Drops below altitude 10° 22:15:08 10° 41° (NE) 1,659 4.6 -8.6°
Sets 22:17:31 0° 53° (NE) 2,539 5.4 -8.9°
